sat.trackr.live / text

‹ back to catalog

SORAYA

NORAD 58817 · 2024-015A

PAYLOAD ACTIVE UNKNOWN

§ Identity

Operator
Country
IRAN
Launch date
2024-01-20
Launch site
SMTS
Launch vehicle
Mass (kg)
RCS (m²)

External: N2YO · Heavens-Above · Gunter

§ Orbital elements

Epoch: 2026-05-25T04:07:48.431712Z

Period
99.81 min
Inclination
64.5131°
Eccentricity
0.0009985
Mean motion
14.42704765 rev/d
Perigee alt
742.5 km
Apogee alt
756.7 km
Semi-major
7,127.7 km
B*
4.8381e-5
RAAN
147.7339°
Arg perigee
248.8783°
Mean anomaly
111.1235°
Rev number
12,345

§ Raw data

SORAYA1 58817U 24015A   26145.17208833  .00000054  00000+0  48381-4 0  99972 58817  64.5131 147.7339 0009985 248.8783 111.1235 14.42704765123455

JSON: /api/v1/satellites/58817 · /tle

For live sub-satellite position, see the globe view (requires WebGL).

§ Visibility from observer

Set your observer location to see the next 7 days of passes ≥ 10°. The values pass through the URL so the page stays shareable.

No JS? Fill the form by hand. The geolocation button needs JavaScript.